Location: Unspecified
(0.0000°N, 0.0000°E)
Time: 20:40:03
(UTC+00:00)

STARLINK-1670 - Visible Passes

Search period start: 12 January 2025 00:00
Search period end: 22 January 2025 00:00
Orbit: 322 x 331 km, 53.0° (Epoch: 12 January)

Date Brightness Start Highest point End Pass type
(mag) Time Alt. Az. Time Alt. Az. Time Alt. Az.
14 Jan 3.8 18:59:12 10° S 19:01:34 25° SE 19:02:21 22° E visible
15 Jan 3.4 19:14:40 10° SW 19:17:17 45° NW 19:18:21 28° N visible
18 Jan 5.0 05:30:21 10° N 05:32:21 19° NE 05:34:22 10° ESE visible
19 Jan 2.4 05:43:09 10° NW 05:45:45 69° WSW 05:48:22 10° SSE visible
21 Jan 4.6 04:37:22 26° E 04:37:22 26° E 04:38:54 10° SE visible
